軌道要素
Epoch 2018 Feb. 11.0 TT = JDT 2458160.5
T 2018 Jan. 29.25380 TT MPCW
q 3.7508721 (2000.0) P Q
n 0.11768068 Peri. 146.69923 -0.84188253 +0.52690528
a 4.1241325 Node 65.52121 -0.51889139 -0.73096463
e 0.0905064 Incl. 7.36319 -0.14827515 -0.43366063
P 8.38
From 103 observations 2005 Nov. 1-2017 Jan. 29, mean residual 0".5.
|